Weather History for Brookings, OR

Change the Weather History Date:

Saturday, February 9, 2013

  Actual Average Record
Temperature  
Mean Temperature 45 °F -  
Max Temperature 54 °F 55 °F 75 °F (2006)
Min Temperature 36 °F 42 °F 31 °F (1939)
Degree Days  
Heating Degree Days 20    
Moisture  
Dew Point 35 °F    
Average Humidity 67    
Maximum Humidity 89    
Minimum Humidity 50    
Precipitation  
Precipitation 0.00 in - - ()
Sea Level Pressure  
Sea Level Pressure 30.22 in    
Wind  
Wind Speed 6 mph (North)    
Max Wind Speed 9 mph    
Max Gust Speed -    
Visibility 10 miles    
Events      
Averages and records for this station are not official NWS values.
T = Trace of Precipitation, MM = Missing Value Source: NWS Daily Summary

Daily Weather History Graph

Daily Weather History Graph

Search for Another Location

Airport:

Trip Planner

Search our weather history database for the weather conditions in past years. The results will help you decide how hot, cold, wet, or windy it might be!

Date:

Astronomy

Feb. 09, 2013 Rise Set
Actual Time 7:20 AM PST 5:42 PM PST
Civil Twilight 6:51 AM PST 6:11 PM PST
Nautical Twilight 6:18 AM PST 6:44 PM PST
Astronomical Twilight 5:46 AM PST 7:17 PM PST
Moon 6:35 AM PST (2/9) 5:32 PM PST (2/9)
Length of Visible Light 11h 20m
Length of Day
10h 22m
Waning Crescent, 0% of the Moon is Illuminated
Feb 9
Waning Crescent
Feb 9
New
Feb 17
First Quarter
Feb 25
Full
Mar 4
Last Quarter

Hourly Weather History & Observations

Time (PST) Temp. Windchill Dew Point Humidity Pressure Visibility Wind Dir Wind Speed Gust Speed Precip Events Conditions
12:56 AM 38.8 °F 35.4 °F 34.9 °F 86% 30.23 in 10.0 mi Variable 4.6 mph - N/A   Clear
1:56 AM 39.9 °F 35.1 °F 34.0 °F 79% 30.23 in 10.0 mi North 6.9 mph - N/A   Clear
2:56 AM 38.8 °F 35.4 °F 34.0 °F 83% 30.22 in 10.0 mi North 4.6 mph - N/A   Clear
3:56 AM 36.9 °F 33.1 °F 34.0 °F 89% 30.23 in 10.0 mi North 4.6 mph - N/A   Clear
4:56 AM 39.9 °F 35.1 °F 34.0 °F 79% 30.23 in 10.0 mi North 6.9 mph - N/A   Clear
5:56 AM 39.9 °F 35.1 °F 34.0 °F 79% 30.23 in 10.0 mi North 6.9 mph - N/A   Clear
6:56 AM 39.9 °F 34.5 °F 32.9 °F 76% 30.23 in 10.0 mi North 8.1 mph - N/A   Clear
7:56 AM 41.0 °F - 32.9 °F 73% 30.23 in 10.0 mi Calm Calm - N/A   Clear
8:56 AM 43.9 °F - 32.9 °F 65% 30.22 in 10.0 mi Calm Calm - N/A   Clear
9:56 AM 45.9 °F 41.7 °F 30.0 °F 54% 30.24 in 10.0 mi North 8.1 mph - N/A   Clear
10:56 AM 48.9 °F - 31.1 °F 50% 30.25 in 10.0 mi Variable 6.9 mph - N/A   Clear
11:56 AM 50.0 °F - 34.9 °F 56% 30.23 in 10.0 mi NNW 8.1 mph - N/A   Clear
12:56 PM 50.9 °F - 37.9 °F 61% 30.21 in 10.0 mi NW 6.9 mph - N/A   Clear
1:56 PM 54.9 °F - 38.8 °F 55% 30.19 in 10.0 mi NW 9.2 mph - N/A   Scattered Clouds
2:56 PM 54.9 °F - 38.8 °F 55% 30.18 in 10.0 mi NNW 8.1 mph - N/A   Clear
3:56 PM 54.9 °F - 36.9 °F 51% 30.19 in 10.0 mi Variable 5.8 mph - N/A   Clear
4:56 PM 54.0 °F - 36.9 °F 52% 30.20 in 10.0 mi Variable 5.8 mph - N/A   Clear
5:56 PM 50.0 °F - 37.9 °F 63% 30.22 in 10.0 mi North 4.6 mph - N/A   Clear
6:56 PM 48.9 °F - 36.9 °F 63% 30.22 in 10.0 mi NNE 5.8 mph - N/A   Clear
7:56 PM 47.8 °F - 36.9 °F 66% 30.22 in 10.0 mi North 5.8 mph - N/A   Clear
8:56 PM 47.8 °F - 36.9 °F 66% 30.23 in 10.0 mi Calm Calm - N/A   Clear
9:56 PM 46.9 °F - 36.9 °F 68% 30.22 in 10.0 mi Variable 6.9 mph - N/A   Clear
10:56 PM 46.9 °F - 36.0 °F 66% 30.22 in 10.0 mi North 4.6 mph - N/A   Clear
11:56 PM 46.9 °F - 36.0 °F 66% 30.22 in 10.0 mi North 6.9 mph - N/A   Clear